Home > Time Zones > World Clock > Weather > Peru > Ica > Past weeks

Flag for Peru Weather past 2 weeks in Ica, Ica, Peru

Now
77 °F

Sunny.


Feels Like: 79 °F
Forecast: 68 / 88 °F
Wind: 7 mph from West

Location: Pisco Airport

Current Time: Mar 31, 2015 at 1:56:03 PM

Latest Report: Mar 31, 2015 at 1:00 PM


Visibility: 10 mi

Pressure: 29.89 "Hg

Humidity: 74%

Dew point: 68 °F

Location of IcaLocation

Historic Weather in Ica — Graph

°F

Ica temperature yesterday

Maximum temperature yesterday: 82 °F (at 2:00 PM)
Minimum temperature yesterday: 68 °F (at 6:00 AM)
Average temperature yesterday: 74 °F

Past Weeks' High & Low Weather Summary

 TemperatureHumidityPressure
High84 °F (Mar 17, 3:00 PM)94% (Mar 17, 3:00 AM)29.98 "Hg (Mar 17, 3:00 AM)
Low68 °F (Mar 27, 4:00 AM)55% (Mar 17, 3:00 PM)29.77 "Hg (Mar 18, 4:00 PM)
Average75 °F82%29.90 "Hg
* Reported Mar 16 12:00 Noon — Mar 31 12:00 Noon, Ica, Weather by CustomWeather, © 2015

Note: Actual official high and low records may vary slightly from our data, if they occured in-between our weather recording intervals... More about our weather records

Advertising

Ica weather history for previous 24 hours

 ConditionsComfort  
Time TempWeatherWind HumidityBarometerVisibility
12:00 PM
Tue, Mar 31
75 °FSunny.7 mph78%29.89 "Hg10 mi
11:00 AM75 °FSunny.7 mph78%29.92 "Hg10 mi
10:00 AM75 °FSunny.6 mph78%29.92 "Hg10 mi
9:00 AM72 °FPassing clouds.6 mph83%29.95 "HgN/A
8:00 AM70 °FSunny.5 mph88%29.92 "Hg10 mi
7:00 AM68 °FClear.5 mph94%29.89 "Hg5 mi
6:00 AM68 °FPassing clouds.6 mph94%29.89 "HgN/A
5:00 AM68 °FPassing clouds.7 mph94%29.89 "HgN/A
4:00 AM70 °FClear.5 mph88%29.89 "Hg10 mi
3:00 AM70 °FClear.6 mph88%29.89 "Hg10 mi
2:00 AM70 °FClear.8 mph88%29.92 "Hg10 mi
1:00 AM72 °FClear.10 mph83%29.92 "Hg10 mi
12:00 AM72 °FClear.9 mph83%29.92 "Hg10 mi
11:00 PM
Mon, Mar 30
72 °FClear.10 mph88%29.95 "Hg10 mi
10:00 PM72 °FClear.15 mph88%29.95 "Hg10 mi
9:00 PM72 °FClear.17 mph88%29.92 "Hg10 mi
8:00 PM73 °FClear.18 mph83%29.89 "Hg10 mi
7:00 PM73 °FClear.20 mph83%29.89 "Hg10 mi
6:00 PM75 °FSunny.21 mph78%29.86 "Hg10 mi
5:00 PM77 °FSunny.21 mph74%29.86 "Hg10 mi
4:00 PM79 °FSunny.18 mph70%29.86 "Hg10 mi
3:00 PM82 °FSunny.17 mph62%29.86 "Hg10 mi
2:00 PM82 °FSunny.15 mph58%29.89 "Hg10 mi
1:00 PM79 °FPassing clouds.9 mph70%29.92 "HgN/A
Weather by CustomWeather, © 2015

See weather overviewHow to use our weather pages